Weather History for KCMH - December, 2012

Change the Weather History Date:

Monday, December 3, 2012

  Actual Average Record
Temperature  
Mean Temperature 59 °F 37 °F  
Max Temperature 63 °F 44 °F 76 °F (1982)
Min Temperature 55 °F 30 °F 0 °F (1966)
Degree Days  
Heating Degree Days 6 28  
Month to date heating degree days 31 82  
Since 1 July heating degree days 1148 1096  
Cooling Degree Days 0 0  
Month to date cooling degree days 0 0  
Year to date cooling degree days 1439 1024  
Growing Degree Days 9 (Base 50)    
Moisture  
Dew Point 56 °F    
Average Humidity 90    
Maximum Humidity 100    
Minimum Humidity 80    
Precipitation  
Precipitation 0.01 in 0.09 in 1.41 in (1978)
Month to date precipitation 0.56 0.28  
Year to date precipitation 32.13 36.62  
Snow  
Snow 0.00 in 0.10 in 7.90 in (1957)
Month to date snowfall 0.0 0.3  
Since 1 July snowfall 0.8 1.4  
Snow Depth 0.00 in    
Sea Level Pressure  
Sea Level Pressure 30.13 in    
Wind  
Wind Speed 6 mph (South)    
Max Wind Speed 14 mph    
Max Gust Speed 21 mph    
Visibility 5 miles    
Events Fog , Rain    
T = Trace of Precipitation, MM = Missing Value Source: NWS Daily Summary

Daily Weather History Graph

Daily Weather History Graph

Search for Another Location

Airport or City:

Trip Planner

Search our weather history database for the weather conditions in past years. The results will help you decide how hot, cold, wet, or windy it might be!

Date:

Astronomy

Dec. 03, 2012 Rise Set
Actual Time 7:36 AM EST 5:06 PM EST
Civil Twilight 7:06 AM EST 5:36 PM EST
Nautical Twilight 6:32 AM EST 6:10 PM EST
Astronomical Twilight 6:00 AM EST 6:42 PM EST
Moon 9:52 PM EST (12/3) 10:59 AM EST (12/3)
Length of Visible Light 10h 30m
Length of Day
9h 29m
Waning Gibbous, 78% of the Moon is Illuminated
Dec 3
Waning Gibbous
Dec 6
Last Quarter
Dec 13
New
Dec 20
First Quarter
Dec 28
Full

Hourly Weather History & Observations

Time (EST) Temp. Dew Point Humidity Pressure Visibility Wind Dir Wind Speed Gust Speed Precip Events Conditions
12:12 AM 55.4 °F 55.4 °F 100% 30.14 in 0.2 mi SSW 3.5 mph - N/A Fog Fog
12:26 AM 55.4 °F 55.4 °F 100% 30.14 in 0.5 mi SSW 4.6 mph - N/A Fog Fog
12:44 AM 55.4 °F 55.4 °F 100% 30.14 in 0.2 mi South 3.5 mph - N/A Fog Fog
12:51 AM 55.9 °F 55.9 °F 100% 30.14 in 0.2 mi South 3.5 mph - N/A Fog Fog
1:51 AM 55.9 °F 55.9 °F 100% 30.15 in 0.2 mi Calm Calm - N/A Fog Fog
2:51 AM 55.9 °F 55.9 °F 100% 30.15 in 0.2 mi SSE 3.5 mph - N/A Fog Fog
3:51 AM 55.9 °F 55.9 °F 100% 30.15 in 0.2 mi Calm Calm - N/A Fog Fog
4:28 AM 55.4 °F 55.4 °F 100% 30.14 in 0.2 mi SSE 4.6 mph - N/A Fog Fog
4:49 AM 55.4 °F 55.4 °F 100% 30.14 in 0.5 mi South 3.5 mph - N/A Fog Fog
4:51 AM 55.9 °F 55.9 °F 100% 30.14 in 0.5 mi South 3.5 mph - N/A Fog Fog
5:12 AM 57.2 °F 57.2 °F 100% 30.14 in 1.0 mi South 3.5 mph - N/A Rain Light Rain
5:51 AM 57.0 °F 57.0 °F 100% 30.15 in 1.0 mi South 3.5 mph - 0.01 in   Overcast
6:13 AM 55.4 °F 55.4 °F 100% 30.15 in 1.0 mi Calm Calm - N/A   Overcast
6:51 AM 55.9 °F 55.9 °F 100% 30.16 in 1.5 mi SE 4.6 mph - N/A   Overcast
7:21 AM 57.2 °F 55.4 °F 94% 30.17 in 3.0 mi SSE 3.5 mph - N/A   Overcast
7:51 AM 57.0 °F 55.9 °F 96% 30.17 in 3.0 mi SSE 3.5 mph - N/A   Overcast
8:51 AM 57.9 °F 57.0 °F 97% 30.17 in 3.0 mi SSE 4.6 mph - N/A   Overcast
9:51 AM 59.0 °F 57.0 °F 93% 30.17 in 3.0 mi South 6.9 mph - N/A   Overcast
10:51 AM 61.0 °F 55.9 °F 83% 30.17 in 10.0 mi South 8.1 mph - N/A   Overcast
11:51 AM 61.0 °F 55.9 °F 83% 30.15 in 10.0 mi SSW 9.2 mph - N/A   Overcast
12:18 PM 62.6 °F 55.4 °F 77% 30.14 in 10.0 mi SSW 11.5 mph - N/A   Overcast
12:51 PM 61.0 °F 55.9 °F 83% 30.12 in 10.0 mi South 9.2 mph - N/A   Overcast
1:51 PM 61.0 °F 57.0 °F 87% 30.12 in 6.0 mi South 11.5 mph - 0.00 in Rain Light Rain
2:24 PM 60.8 °F 57.2 °F 88% 30.11 in 10.0 mi South 9.2 mph - 0.00 in   Overcast
2:51 PM 62.1 °F 57.9 °F 86% 30.09 in 10.0 mi South 9.2 mph - 0.00 in   Overcast
3:51 PM 63.0 °F 57.9 °F 84% 30.09 in 10.0 mi South 5.8 mph - N/A   Mostly Cloudy
4:51 PM 63.0 °F 57.9 °F 84% 30.10 in 10.0 mi SSE 6.9 mph - N/A   Overcast
5:51 PM 60.1 °F 57.0 °F 90% 30.10 in 10.0 mi SSE 6.9 mph - N/A   Overcast
6:51 PM 60.1 °F 57.0 °F 90% 30.10 in 10.0 mi SSE 9.2 mph - N/A   Overcast
7:51 PM 57.9 °F 55.9 °F 93% 30.11 in 10.0 mi SSE 8.1 mph - N/A   Overcast
8:51 PM 59.0 °F 55.4 °F 88% 30.10 in 10.0 mi SSE 8.1 mph - N/A   Mostly Cloudy
9:51 PM 59.0 °F 54.0 °F 83% 30.09 in 10.0 mi South 6.9 mph - N/A   Scattered Clouds
10:51 PM 57.0 °F 53.1 °F 87% 30.10 in 10.0 mi SSE 6.9 mph - N/A   Mostly Cloudy
11:51 PM 57.0 °F 53.1 °F 87% 30.10 in 10.0 mi South 5.8 mph - N/A   Mostly Cloudy